TITAN 3C TRANSTAGE DEB, 43449

Orbit data source: Space-Track

TITAN 3C TRANSTAGE DEB, 43449 is space debris in GEO originally from a launch on Sun, 09 Feb 1969 UTC launched from the Air Force Eastern Test Range (AFETR). Debris objects in space refer to the collection of defunct objects orbiting the Earth. Examples of debris include non-operational satellites, rocket bodies, and fragments generated from explosions, collisions, or faulty payload assembly.

Loading next visibility...
Identifier
43449, 1969-013J
Orbit
GEO
Last TLE update
2 days ago
Origin
Manufacturer
Martin Marietta
Mission
Spacecraft
Bus & Motor
Unknown
Mass
Unknown
Launch date (UTC)
1969-02-09 (56 years ago)
Launch vehicle
Unknown
Launch site
Air Force Eastern Test Range (AFETR)
Object type
Payload
Rocket body
Debris
Shape & HBR
Unknown
Radar Cross Section
RCS unknown

Expand to show TLE details & history

TLE from 2 days ago
0 TITAN 3C TRANSTAGE DEB
1 43449U 69013J   25127.66291779 -.00000090  00000-0  00000-0 0  9997
2 43449   0.4297  47.7202 0140099  86.0681 227.3716  0.96590450 24925
Epoch: 2025-05-07T15:54Z
Definitive object data (Epoch: 2025-05-07T15:54:36.097Z)
Latitude
-0.29673°
Longitude
-104.39423°
Altitude
37,263.684 km
Speed
3.008 km/s
True Right ascension
00h 00m 00s
True Declination
0° 17' 47"
Sunlit
Object was in daylight at TLE epoch
Visualization TLE readout
Latitude
0.25054°
Longitude
84.03857°
Altitude
36,496.202 km
Speed
3.062 km/s
Apparent Right ascension
12h 24m 50s
Apparent Declination
-5° 47' 59"
Sunlit
Object is in daylight
Visualization observer readout
Local Sidereal Time
13:44:16
Azimuth
206.5° SW
Elevation
40.755°
Doppler factor
1
Orbital elements
Apogee altitude
37,457.947 km
Perigee altitude
36,246.639 km
Semi-major axis
43,230.43 km
Eccentricity
0.0140099
Inclination
0.4297°
RAAN
47.7202°
Arg. of periapsis
86.0681°
True anomaly
226.20433°
Mean anomaly
227.3716°
Eccentric anomaly
226.78658°
Mean motion
0.24147 °/min
BSTAR
Unknown
Orbital period
1490.88 mins
Loading historical data...
43449 neighbors
Loading maneuver chart data...
Loading SW <> Apogee altitude chart data...

TITAN 3C TRANSTAGE DEB Visibility forecast

Observer location: undefined°, undefined°

Span
Click to sort rows by Start time (UTC) header in descending order
Start Az.
Max El. time (UTC)
Max El. Az.
Max El.
End time (UTC)
End Az.
1440 mins2025-05-09 05:35:34.889Z206.49° SW2025-05-09 05:35:34.889Z206.49° SW33.13°2025-05-10 05:35:34.889Z223.493° SW
|